PBO Station Position Time Series. Reference Frame : NAM14
Format Version,1.1.1
4-character ID,P378
Station name,LebanonAirOR2007
Begin Date, 2007-06-28
End Date, 2023-06-26
Release Date, 2023-06-27
Reference position, 44.5349824415 North Latitude, -122.9308817464 East Longitude, 83.12751 meters elevation,
Date, North (mm), East (mm), Vertical (mm), North Std. Deviation (mm), East Std. Deviation (mm),              Vertical Std. Deviation (mm), Quality,
2007-06-28,0.00, 0.00, 0.00, 2.11, 1.54, 6.93, repro,
2007-06-29,1.79, 1.40, -7.18, 2.13, 1.54, 6.98, repro,
2007-06-30,0.08, 0.91, -1.48, 2.11, 1.53, 6.93, repro,
2007-07-01,1.47, 0.30, 5.27, 2.11, 1.53, 6.92, repro,
2007-07-02,2.48, -0.74, 3.12, 2.10, 1.53, 6.90, repro,
2007-07-03,1.53, -0.01, 0.38, 2.10, 1.53, 6.90, repro,
2007-07-04,1.28, 0.32, 0.31, 2.13, 1.53, 6.97, repro,
2007-07-05,1.03, 0.34, -5.55, 2.11, 1.53, 6.89, repro,
2007-07-06,1.46, -0.17, -2.01, 2.11, 1.53, 6.93, repro,
2007-07-07,1.99, 0.73, -5.65, 2.12, 1.53, 6.90, repro,
2007-07-08,0.80, 0.75, -3.80, 2.10, 1.53, 6.83, repro,
2007-07-09,0.99, 1.75, -0.53, 2.12, 1.54, 6.94, repro,
2007-07-10,-1.25, 1.37, -1.54, 2.11, 1.53, 6.91, repro,
2007-07-11,1.34, -1.07, 5.04, 2.11, 1.53, 6.91, repro,
2007-07-12,1.09, 1.31, 2.47, 2.14, 1.54, 6.95, repro,
2007-07-13,0.86, -0.33, 3.67, 2.15, 1.60, 7.10, repro,
2007-07-14,0.11, 0.35, 4.63, 2.14, 1.59, 7.10, repro,
2007-07-15,1.25, 1.85, 7.09, 2.11, 1.54, 6.93, repro,
2007-07-16,0.66, 0.29, 2.90, 2.11, 1.53, 6.90, repro,
2007-07-17,0.21, 0.61, 5.27, 2.11, 1.54, 6.91, repro,
2007-07-18,0.46, -0.42, 1.29, 2.15, 1.59, 7.06, repro,
2007-07-19,0.47, 1.05, 0.90, 2.10, 1.53, 6.87, repro,
2007-07-20,0.52, 0.28, 11.88, 2.15, 1.59, 7.08, repro,
2007-07-21,-0.51, -1.16, 5.65, 2.12, 1.54, 6.95, repro,
2007-07-22,-0.20, 1.11, -0.54, 2.12, 1.53, 6.93, repro,
2007-07-23,1.68, 0.33, -1.96, 2.12, 1.55, 6.97, repro,
2007-07-24,0.46, 0.19, 12.77, 2.11, 1.53, 6.88, repro,
2007-07-25,1.83, 0.96, 3.70, 2.11, 1.53, 6.87, repro,
2007-07-26,-0.93, -0.19, 3.78, 2.16, 1.58, 7.00, repro,
2007-07-27,1.11, 0.25, 6.16, 2.11, 1.53, 6.90, repro,
2007-07-28,1.27, 0.06, 2.78, 2.15, 1.55, 7.02, repro,
2007-07-29,-0.79, 1.59, 7.93, 2.11, 1.53, 6.88, repro,
2007-07-30,1.19, 0.24, 6.42, 2.18, 1.64, 7.20, repro,
2007-07-31,1.24, 0.96, 3.67, 2.10, 1.53, 6.86, repro,
2007-08-01,0.04, 0.55, 7.80, 2.13, 1.54, 6.99, repro,
2007-08-02,0.05, 0.54, 11.61, 2.14, 1.54, 7.03, repro,
2007-08-03,1.15, 0.17, 7.31, 2.12, 1.53, 6.92, repro,
2007-08-04,1.66, 0.80, 11.54, 2.10, 1.52, 6.85, repro,
2007-08-05,0.75, 0.15, 9.51, 2.10, 1.52, 6.86, repro,
2007-08-06,1.60, -0.70, 14.27, 2.16, 1.58, 7.11, repro,
2007-08-07,1.20, 0.02, 11.73, 2.16, 1.59, 7.14, repro,
2007-08-08,2.26, -0.21, 10.23, 2.12, 1.54, 7.00, repro,
2007-08-09,-0.02, 0.28, 7.39, 2.11, 1.52, 6.87, repro,
2007-08-10,0.15, 0.20, 10.74, 2.09, 1.51, 6.82, repro,
2007-08-11,1.48, -0.37, 10.21, 2.10, 1.53, 6.91, repro,
2007-08-12,0.15, 0.61, 5.70, 2.13, 1.54, 7.00, repro,
2007-08-13,0.22, 0.23, 5.61, 2.12, 1.53, 6.96, repro,
2007-08-14,0.40, -0.28, 5.88, 2.26, 1.64, 7.38, repro,
2007-08-15,2.11, -0.24, 8.88, 2.24, 1.65, 7.33, repro,
2007-08-16,0.34, 0.44, 4.80, 2.20, 1.59, 7.16, repro,
2007-08-17,2.12, -0.26, 9.41, 2.22, 1.62, 7.30, repro,
2007-08-18,1.86, 0.64, 11.80, 2.28, 1.64, 7.51, repro,
2007-08-19,0.15, 0.20, 13.03, 2.26, 1.63, 7.45, repro,
2007-08-20,-0.24, -0.04, 7.94, 2.22, 1.58, 7.18, repro,
2007-08-21,1.96, 0.45, 9.37, 2.20, 1.57, 7.11, repro,
2007-08-22,1.29, -0.29, 7.52, 2.21, 1.58, 7.12, repro,
2007-08-23,-0.12, -0.78, 17.64, 2.17, 1.55, 7.08, repro,
2007-08-24,1.09, 1.22, 6.06, 2.29, 1.63, 7.40, repro,
2007-08-25,1.73, -0.36, 6.27, 2.22, 1.61, 7.30, repro,
2007-08-26,0.59, -0.01, 14.70, 2.28, 1.67, 7.47, repro,
2007-08-27,0.60, -0.26, 5.44, 2.24, 1.63, 7.27, repro,
2007-08-28,1.55, -0.18, 7.95, 2.22, 1.61, 7.25, repro,
2007-08-29,1.77, 0.37, 3.52, 2.21, 1.61, 7.23, repro,
2007-08-30,0.64, -0.17, 13.63, 2.21, 1.61, 7.29, repro,
2007-08-31,0.44, -0.39, 8.91, 2.27, 1.65, 7.41, repro,
2007-09-01,0.62, -0.79, 10.09, 2.21, 1.60, 7.20, repro,
2007-09-02,-0.52, -0.68, 10.48, 2.21, 1.60, 7.20, repro,
2007-09-03,2.07, -0.81, 7.10, 2.22, 1.61, 7.26, repro,
2007-09-04,1.25, -2.35, -0.69, 2.52, 1.84, 8.34, repro,
2007-09-05,0.65, -0.25, 10.85, 2.20, 1.60, 7.15, repro,
2007-09-06,0.31, -0.26, 13.79, 2.23, 1.60, 7.25, repro,
2007-09-07,1.28, 0.57, 11.47, 2.21, 1.60, 7.18, repro,
2007-09-08,0.86, 0.25, 4.49, 2.32, 1.70, 7.65, repro,
2007-09-09,0.83, -0.61, 9.19, 2.29, 1.68, 7.53, repro,
2007-09-10,0.93, -0.01, 9.74, 2.22, 1.60, 7.20, repro,
2007-09-11,0.40, -0.35, 12.22, 2.20, 1.61, 7.20, repro,
2007-09-12,1.28, -0.57, 7.25, 2.25, 1.66, 7.46, repro,
2007-09-13,0.37, -0.62, 10.93, 2.28, 1.66, 7.52, repro,
2007-09-14,0.42, -1.17, 11.37, 2.27, 1.65, 7.49, repro,
2007-09-15,0.13, -1.69, 11.60, 2.30, 1.63, 7.48, repro,
2007-09-16,-0.22, -0.78, 12.83, 2.22, 1.61, 7.22, repro,
2007-09-17,0.93, 0.13, 13.71, 2.25, 1.65, 7.41, repro,
2007-09-18,1.09, -0.24, 7.08, 2.18, 1.62, 7.23, repro,
2007-09-19,0.06, -0.61, 11.40, 2.15, 1.56, 7.05, repro,
2007-09-20,1.23, 0.51, 11.31, 2.13, 1.53, 6.91, repro,
2007-09-21,1.74, 0.15, 9.89, 2.21, 1.58, 7.21, repro,
2007-09-22,-0.04, 0.45, 10.47, 2.16, 1.54, 6.99, repro,
2007-09-23,0.99, 0.94, 9.55, 2.21, 1.59, 7.15, repro,
2007-09-24,-0.21, 0.58, 8.81, 2.29, 1.62, 7.39, repro,
2007-09-25,-0.97, 0.84, 5.80, 2.23, 1.58, 7.24, repro,
2007-09-26,0.28, 0.21, 9.18, 2.26, 1.55, 7.13, repro,
2007-09-27,-0.37, 0.05, 8.99, 2.20, 1.57, 7.18, repro,
2007-09-28,1.43, -0.25, 8.45, 2.14, 1.58, 7.07, repro,
2007-09-29,-0.26, 0.02, 11.82, 2.22, 1.64, 7.29, repro,
2007-09-30,0.25, -0.29, 11.17, 2.32, 1.75, 7.71, repro,
2007-10-01,-0.41, -2.47, 13.31, 2.29, 1.67, 7.42, repro,
2007-10-02,-0.63, -1.25, 11.21, 2.33, 1.68, 7.61, repro,
2007-10-03,1.52, -2.36, 18.31, 2.19, 1.61, 7.33, repro,
2007-10-04,-1.24, -0.23, 14.38, 2.20, 1.61, 7.29, repro,
2007-10-05,0.21, 0.07, 16.48, 2.26, 1.70, 7.58, repro,
2007-10-06,0.67, 1.00, 10.71, 2.25, 1.64, 7.36, repro,
2007-10-07,-0.16, 0.32, 7.20, 2.28, 1.64, 7.36, repro,
2007-10-08,1.34, 0.87, 6.01, 2.47, 1.73, 7.92, repro,
2007-10-09,0.60, 0.89, 11.79, 2.42, 1.83, 8.10, repro,
2007-10-10,0.66, 0.43, 3.70, 2.38, 1.69, 7.72, repro,
2007-10-11,0.91, -0.22, 6.95, 2.22, 1.64, 7.31, repro,
2007-10-12,0.88, 0.41, 14.67, 2.29, 1.67, 7.46, repro,
2007-10-13,-0.12, -0.21, 11.18, 2.15, 1.57, 7.06, repro,
2007-10-14,0.62, 0.47, 8.17, 2.15, 1.57, 7.06, repro,
2007-10-15,-0.54, -0.22, 16.14, 2.15, 1.58, 7.10, repro,
2007-10-16,0.83, 0.32, 7.16, 2.17, 1.59, 7.13, repro,
2007-10-17,-1.48, -1.57, 11.97, 2.17, 1.58, 7.08, repro,
2007-10-18,1.67, 0.88, 20.62, 2.16, 1.58, 7.09, repro,
2007-10-19,0.92, -0.24, 15.84, 2.17, 1.58, 7.14, repro,
2007-10-20,-0.44, 1.04, 20.13, 2.17, 1.57, 7.11, repro,
2007-10-21,0.41, 1.28, 5.80, 2.16, 1.59, 7.13, repro,
2007-10-22,0.07, 1.23, 2.03, 2.15, 1.56, 7.10, repro,
2007-10-23,0.37, 2.34, 0.31, 2.24, 1.65, 7.38, repro,
2007-10-24,0.57, 1.34, 1.27, 2.27, 1.67, 7.53, repro,
2007-10-25,2.45, -0.05, -1.21, 2.16, 1.57, 7.11, repro,
2007-10-26,0.77, 0.54, 2.01, 2.19, 1.63, 7.28, repro,
2007-10-27,0.27, 0.95, 3.60, 2.14, 1.58, 7.03, repro,
2007-10-28,0.99, 1.45, -2.43, 2.17, 1.59, 7.19, repro,
2007-10-29,0.86, 0.47, 4.62, 2.15, 1.59, 7.13, repro,
2007-10-30,0.54, 1.19, 0.58, 2.20, 1.62, 7.32, repro,
2007-10-31,0.75, 1.71, -0.39, 2.15, 1.58, 7.09, repro,
2007-11-01,0.75, 1.52, 5.70, 2.10, 1.55, 6.92, repro,
2007-11-02,0.82, 1.61, 1.88, 2.10, 1.54, 6.87, repro,
2007-11-03,1.84, 0.82, 0.70, 2.12, 1.56, 7.01, repro,
2007-11-04,1.00, 0.86, 2.27, 2.11, 1.55, 6.93, repro,
2007-11-05,1.89, 1.05, 1.52, 2.13, 1.56, 6.97, repro,
2007-11-06,0.42, 0.78, -2.22, 2.20, 1.64, 7.43, repro,
2007-11-07,0.94, 0.34, 1.31, 2.10, 1.55, 6.91, repro,
2007-11-08,1.02, 1.48, 7.28, 2.17, 1.59, 7.13, repro,
2007-11-09,-0.04, 1.16, 3.94, 2.18, 1.60, 7.20, repro,
2007-11-10,1.78, -0.63, 4.89, 2.15, 1.57, 7.12, repro,
2007-11-11,1.87, 0.43, 0.38, 2.13, 1.55, 6.97, repro,
2007-11-12,-0.09, 0.48, 8.26, 2.13, 1.56, 7.05, repro,
2007-11-13,-0.12, 0.35, 3.06, 2.13, 1.56, 7.03, repro,
2007-11-14,1.01, 1.53, 0.35, 2.12, 1.55, 6.98, repro,
2007-11-15,3.03, -0.19, -2.50, 2.17, 1.58, 7.16, repro,
2007-11-16,1.38, -1.38, 6.59, 2.13, 1.56, 7.02, repro,
2007-11-17,-1.05, -0.33, 7.33, 2.15, 1.60, 7.16, repro,
2007-11-18,1.51, -0.63, 2.28, 2.10, 1.55, 6.94, repro,
2007-11-19,0.41, -0.43, 1.20, 2.11, 1.56, 6.96, repro,
2007-11-20,1.68, -0.70, -6.60, 2.12, 1.59, 7.07, repro,
2007-11-21,1.34, 0.82, -3.06, 2.14, 1.60, 7.13, repro,
2007-11-22,2.03, 0.28, -6.29, 2.12, 1.56, 6.99, repro,
2007-11-23,2.34, 0.36, -0.56, 2.15, 1.64, 7.30, repro,
2007-11-24,2.20, -0.92, -0.31, 2.19, 1.65, 7.24, repro,
2007-11-25,2.19, -0.26, 1.88, 2.21, 1.70, 7.37, repro,
2007-11-26,1.33, 0.77, -2.57, 2.21, 1.68, 7.39, repro,
2007-11-27,1.45, -0.11, -5.67, 2.19, 1.64, 7.23, repro,
2007-11-28,1.24, -0.21, -3.19, 2.13, 1.59, 7.08, repro,
2007-11-29,3.02, -1.62, 1.29, 2.15, 1.60, 7.15, repro,
2007-11-30,1.82, -0.71, -4.02, 2.20, 1.66, 7.29, repro,
2007-12-01,1.54, -0.74, 5.87, 2.26, 1.74, 7.68, repro,
2007-12-02,0.77, -0.09, 5.39, 2.20, 1.68, 7.50, repro,
2007-12-03,1.23, -1.06, 8.18, 2.32, 1.74, 7.78, repro,
2007-12-04,2.06, 0.72, -4.29, 2.27, 1.75, 7.80, repro,
2007-12-05,0.94, 0.54, -4.78, 2.30, 1.79, 7.83, repro,
2007-12-06,1.41, 0.02, -0.09, 2.37, 1.84, 8.12, repro,
2007-12-07,1.01, 0.32, 4.86, 2.31, 1.81, 7.89, repro,
2007-12-08,1.85, 0.14, 0.42, 2.19, 1.68, 7.32, repro,
2007-12-09,2.34, -0.64, 2.89, 2.53, 2.25, 9.08, repro,
2007-12-10,3.01, -0.10, -1.70, 2.22, 1.70, 7.38, repro,
2007-12-11,2.04, 0.55, -2.78, 2.24, 1.69, 7.41, repro,
2007-12-12,2.33, -1.17, -6.64, 2.26, 1.68, 7.41, repro,
2007-12-13,1.73, 0.24, -8.18, 2.26, 1.68, 7.39, repro,
2007-12-14,2.14, 0.20, -0.85, 2.17, 1.58, 7.09, repro,
2007-12-15,0.36, -0.01, 3.19, 2.19, 1.59, 7.14, repro,
2007-12-16,2.23, -0.10, 0.40, 2.23, 1.64, 7.27, repro,
2007-12-17,1.59, -0.98, 4.85, 2.22, 1.63, 7.20, repro,
2007-12-18,1.51, -0.56, 9.06, 2.19, 1.62, 7.20, repro,
2007-12-19,1.59, -1.00, 5.45, 2.19, 1.62, 7.23, repro,
2007-12-20,1.10, -0.29, 7.08, 2.17, 1.58, 7.11, repro,
2007-12-21,1.51, -0.16, -5.16, 2.25, 1.64, 7.36, repro,
2007-12-22,0.97, -0.46, -4.25, 2.21, 1.65, 7.38, repro,
2007-12-23,-0.15, 1.03, -4.91, 2.17, 1.63, 7.21, repro,
2007-12-24,2.48, -0.20, -1.51, 2.19, 1.61, 7.19, repro,
2007-12-25,3.12, 0.49, -0.04, 2.22, 1.61, 7.20, repro,
2007-12-26,1.61, -0.44, 0.55, 2.21, 1.61, 7.23, repro,
2007-12-27,2.37, 0.18, -1.91, 2.21, 1.59, 7.24, repro,
2007-12-28,-0.13, 0.33, 0.72, 2.22, 1.64, 7.34, repro,
2007-12-29,0.11, 0.66, 4.54, 2.22, 1.60, 7.24, repro,
2007-12-30,1.94, -0.51, 0.58, 2.23, 1.60, 7.28, repro,
2007-12-31,2.10, 0.61, -7.83, 2.20, 1.57, 7.15, repro,
2008-01-01,1.90, 0.90, -7.60, 2.20, 1.56, 7.16, repro,
2008-01-02,1.08, 0.97, -2.75, 2.15, 1.55, 7.00, repro,
2008-01-03,0.93, -0.26, 5.76, 2.14, 1.52, 6.94, repro,
2008-01-04,2.54, 0.55, 6.14, 2.15, 1.53, 6.98, repro,
2008-01-05,2.48, -0.69, 9.82, 2.15, 1.53, 6.98, repro,
2008-01-06,2.13, -0.99, 5.07, 2.22, 1.58, 7.19, repro,
2008-01-07,-0.92, -0.71, 2.52, 2.14, 1.53, 6.95, repro,
2008-01-08,0.35, 1.01, 4.16, 2.24, 1.59, 7.18, repro,
2008-01-09,0.30, 0.09, 1.08, 2.19, 1.56, 7.11, repro,
2008-01-10,-0.15, 1.08, 6.87, 2.15, 1.53, 6.96, repro,
2008-01-11,0.09, 0.06, -3.15, 2.14, 1.54, 6.95, repro,
2008-01-12,-0.31, 0.76, -3.24, 2.16, 1.54, 7.02, repro,
2008-01-13,1.11, 1.17, -10.97, 2.13, 1.54, 6.94, repro,
2008-01-14,0.55, 1.38, 1.38, 2.13, 1.54, 6.93, repro,
2008-01-15,1.02, 0.23, -7.03, 2.14, 1.54, 6.93, repro,
2008-01-16,1.52, 1.38, -8.17, 2.17, 1.55, 7.06, repro,
2008-01-17,0.79, 1.52, -5.90, 2.20, 1.56, 7.14, repro,
2008-01-18,1.31, 1.43, -4.40, 2.14, 1.58, 7.09, repro,
2008-01-19,3.13, 0.53, -7.45, 2.12, 1.54, 6.93, repro,
2008-01-20,1.08, 1.74, -2.58, 2.12, 1.55, 6.96, repro,
2008-01-21,1.24, 1.06, 0.79, 2.12, 1.53, 6.90, repro,
2008-01-22,1.48, 2.25, -4.85, 2.13, 1.53, 6.93, repro,
2008-01-23,1.91, 2.63, -2.55, 2.14, 1.54, 6.97, repro,
2008-01-24,1.01, 2.07, 3.33, 2.12, 1.54, 6.97, repro,
2008-01-25,1.85, 1.48, 3.44, 2.11, 1.54, 6.91, repro,
2008-01-26,0.05, 1.69, 5.01, 2.12, 1.53, 6.91, repro,
2008-01-27,1.81, 1.39, 6.91, 2.11, 1.53, 6.88, repro,
2008-01-28,2.11, 0.15, 5.62, 2.14, 1.54, 6.95, repro,
2008-01-29,0.06, -0.28, 5.07, 2.23, 1.66, 7.40, repro,
2008-01-30,1.18, 2.62, -6.54, 2.24, 1.61, 7.25, repro,
2008-01-31,0.83, 1.20, -3.58, 2.12, 1.55, 6.93, repro,
2008-02-01,0.45, 1.98, -7.60, 2.11, 1.53, 6.85, repro,
2008-02-02,1.23, 0.99, -2.06, 2.12, 1.54, 6.93, repro,
2008-02-03,1.59, 0.91, -2.97, 2.12, 1.53, 6.93, repro,
2008-02-04,2.17, 2.49, -5.55, 2.11, 1.54, 6.95, repro,
2008-02-05,0.16, 2.80, -0.63, 2.17, 1.62, 7.19, repro,
2008-02-06,-0.54, 1.44, 2.43, 2.17, 1.62, 7.17, repro,
2008-02-07,1.32, 2.47, -0.26, 2.17, 1.58, 7.17, repro,
2008-02-08,-0.32, 1.30, -6.82, 2.12, 1.54, 6.93, repro,
2008-02-09,0.71, 3.16, -6.33, 2.16, 1.59, 7.06, repro,
2008-02-10,-0.70, 1.93, -8.17, 2.11, 1.54, 6.91, repro,
2008-02-11,1.80, 2.23, -6.58, 2.13, 1.56, 6.99, repro,
2008-02-12,0.94, 2.64, -3.72, 2.12, 1.54, 6.93, repro,
2008-02-13,2.18, 1.24, -2.03, 2.12, 1.54, 6.92, repro,
2008-02-14,1.06, 2.69, -9.64, 2.12, 1.54, 6.90, repro,
2008-02-15,2.17, 2.60, -9.54, 2.13, 1.58, 7.07, repro,
2008-02-16,1.91, 2.06, -5.46, 2.13, 1.56, 6.98, repro,
2008-02-17,1.31, 2.60, -4.34, 2.12, 1.55, 6.96, repro,
2008-02-18,1.02, 2.36, -5.58, 2.11, 1.54, 6.90, repro,
2008-02-19,0.38, 2.73, -4.40, 2.11, 1.53, 6.87, repro,
2008-02-20,1.58, 2.43, 0.25, 2.12, 1.54, 6.93, repro,
2008-02-21,0.70, 2.21, 0.14, 2.11, 1.54, 6.91, repro,
2008-02-22,1.47, 0.93, 5.70, 2.13, 1.55, 6.96, repro,
2008-02-23,0.54, 2.36, -0.39, 2.12, 1.55, 6.91, repro,
2008-02-24,0.03, 2.49, 6.53, 2.11, 1.55, 6.97, repro,
2008-02-25,0.44, 1.93, -5.81, 2.11, 1.54, 6.90, repro,
2008-02-26,1.78, 2.27, -9.63, 2.11, 1.53, 6.88, repro,
2008-02-27,1.63, 2.81, -6.51, 2.14, 1.56, 7.05, repro,
2008-02-28,0.71, 2.16, -4.26, 2.13, 1.54, 6.96, repro,
2008-02-29,0.19, 0.82, 1.93, 2.12, 1.55, 6.93, repro,
2008-03-01,0.60, 1.61, -1.31, 2.14, 1.56, 7.04, repro,
2008-03-02,0.23, 3.69, -13.06, 2.11, 1.53, 6.89, repro,
2008-03-03,-0.34, 2.70, -10.61, 2.13, 1.54, 6.92, repro,
2008-03-04,1.70, 2.38, -5.39, 2.13, 1.54, 6.92, repro,
2008-03-05,1.84, 2.54, -7.01, 2.21, 1.66, 7.40, repro,
2008-03-06,0.08, 2.15, -6.79, 2.14, 1.55, 7.04, repro,
2008-03-07,0.24, 2.20, -8.60, 2.12, 1.53, 6.94, repro,
2008-03-08,1.81, 2.74, -3.41, 2.15, 1.59, 7.14, repro,
2008-03-09,-0.32, 2.36, -6.22, 2.12, 1.54, 6.91, repro,
2008-03-10,1.24, 2.53, -9.48, 2.14, 1.55, 6.98, repro,
2008-03-11,-0.31, 1.41, -8.03, 2.12, 1.54, 6.92, repro,
2008-03-12,1.00, 2.46, -8.77, 2.17, 1.60, 7.19, repro,
2008-03-13,0.94, 0.79, 3.92, 2.15, 1.59, 7.14, repro,
2008-03-14,0.33, 1.01, 1.73, 2.15, 1.58, 7.10, repro,
2008-03-15,-0.10, 1.71, -4.16, 2.12, 1.54, 6.92, repro,
2008-03-16,1.37, 2.21, -3.43, 2.16, 1.58, 7.06, repro,
2008-03-17,1.61, 2.94, -8.43, 2.27, 1.71, 7.64, repro,
2008-03-18,-0.54, 1.34, -0.97, 2.20, 1.62, 7.32, repro,
2008-03-19,1.30, 2.12, -8.48, 2.15, 1.56, 7.04, repro,
2008-03-20,-0.20, 1.74, -4.89, 2.16, 1.57, 7.09, repro,
2008-03-21,1.94, 2.40, -10.94, 2.17, 1.57, 7.12, repro,
2008-03-22,2.16, 2.37, -10.72, 2.16, 1.57, 7.08, repro,
2008-03-23,0.26, 1.76, -9.32, 2.16, 1.58, 7.13, repro,
2008-03-24,1.78, 1.20, -5.10, 2.21, 1.61, 7.30, repro,
2008-03-25,0.88, 1.57, -0.54, 2.19, 1.61, 7.23, repro,
2008-03-26,0.14, 1.76, -5.07, 2.19, 1.62, 7.24, repro,
2008-03-27,1.97, 1.94, -12.37, 2.20, 1.62, 7.25, repro,
2008-03-28,1.14, 0.73, -1.19, 2.22, 1.64, 7.27, repro,
2008-03-29,1.25, 1.56, -2.71, 2.15, 1.54, 6.98, repro,
2008-03-30,2.23, 1.15, -4.16, 2.14, 1.53, 6.96, repro,
2008-03-31,1.70, 2.31, -7.00, 2.16, 1.55, 7.04, repro,
2008-04-01,1.87, 2.52, -6.64, 2.16, 1.55, 7.05, repro,
2008-04-02,1.92, 2.78, -5.08, 2.21, 1.57, 7.14, repro,
2008-04-03,1.56, 2.15, -3.68, 2.15, 1.55, 7.03, repro,
2008-04-04,1.31, 1.60, -3.36, 2.14, 1.53, 7.00, repro,
2008-04-05,0.71, 1.45, -3.85, 2.16, 1.55, 7.08, repro,
2008-04-06,-0.47, 0.84, -2.76, 2.21, 1.59, 7.19, repro,
2008-04-07,-0.54, 0.78, -7.06, 2.16, 1.55, 7.05, repro,
2008-04-08,1.99, 1.70, -4.43, 2.15, 1.55, 7.03, repro,
2008-04-09,2.02, 1.53, -4.26, 2.13, 1.52, 6.93, repro,
2008-04-10,2.02, 1.58, -2.56, 2.15, 1.53, 6.99, repro,
2008-04-11,1.55, 1.93, -8.70, 2.15, 1.54, 7.04, repro,
2008-04-12,1.50, 2.68, -6.84, 2.18, 1.55, 7.13, repro,
2008-04-13,0.67, 2.48, -3.12, 2.16, 1.56, 7.11, repro,
2008-04-14,1.75, 2.20, -1.48, 2.15, 1.54, 7.02, repro,
2008-04-15,2.95, 2.43, 1.02, 2.18, 1.59, 7.12, repro,
2008-04-16,1.84, 1.71, -1.41, 2.18, 1.59, 7.13, repro,
2008-04-17,1.78, 2.21, -6.65, 2.16, 1.55, 7.11, repro,
2008-04-18,0.97, 2.70, -5.36, 2.17, 1.55, 7.10, repro,
2008-04-19,0.36, 2.54, -1.63, 2.17, 1.55, 7.11, repro,
2008-04-20,1.09, 2.77, -2.59, 2.15, 1.53, 7.02, repro,
2008-04-21,0.44, 1.51, -5.39, 2.15, 1.53, 7.02, repro,
2008-04-22,1.08, 2.30, -3.64, 2.16, 1.53, 7.05, repro,
2008-04-23,0.57, 0.35, -2.87, 2.24, 1.62, 7.35, repro,
2008-04-24,1.63, 2.11, -8.32, 2.17, 1.56, 7.14, repro,
2008-04-25,2.11, 2.26, -7.54, 2.17, 1.54, 7.10, repro,
2008-04-26,1.45, 2.52, -12.91, 2.24, 1.56, 7.16, repro,
2008-04-27,2.37, 2.64, -7.06, 2.26, 1.57, 7.23, repro,
2008-04-28,0.11, 2.34, -3.90, 2.26, 1.57, 7.23, repro,
2008-04-29,1.49, 1.45, 0.44, 2.42, 1.68, 7.77, repro,
2008-04-30,0.89, 2.13, -2.05, 2.22, 1.59, 7.30, repro,
2008-05-01,0.96, 3.12, -9.54, 2.23, 1.59, 7.28, repro,
2008-05-02,2.04, 3.03, -1.59, 2.23, 1.61, 7.34, repro,
2008-05-03,1.76, 1.59, -1.91, 2.17, 1.54, 7.13, repro,
2008-05-04,2.25, 3.14, -0.09, 2.16, 1.54, 7.08, repro,
2008-05-05,1.98, 3.01, -7.06, 2.20, 1.58, 7.22, repro,
2008-05-06,-0.32, 1.32, -7.65, 2.23, 1.59, 7.30, repro,
2008-05-07,1.62, 1.54, -2.00, 2.18, 1.53, 7.09, repro,
2008-05-08,1.30, 1.50, 2.20, 2.27, 1.64, 7.72, repro,
2008-05-09,1.06, 2.41, -5.25, 2.18, 1.55, 7.16, repro,
2008-05-10,1.37, 2.02, -5.37, 2.17, 1.54, 7.11, repro,
2008-05-11,1.35, 1.42, -0.28, 2.19, 1.56, 7.20, repro,
2008-05-12,0.29, 2.93, -1.20, 2.21, 1.57, 7.13, repro,
2008-05-13,1.01, 2.28, 1.63, 2.17, 1.51, 6.96, repro,
2008-05-14,1.63, 2.06, 0.64, 2.16, 1.51, 6.98, repro,
2008-05-15,1.86, 2.90, -11.64, 2.16, 1.51, 6.97, repro,
2008-05-16,1.17, 2.77, -3.70, 2.16, 1.52, 6.98, repro,
2008-05-17,-0.08, 2.63, -2.04, 2.19, 1.54, 7.11, repro,
2008-05-18,0.24, 3.13, -1.00, 2.22, 1.57, 7.15, repro,
2008-05-19,0.51, 1.94, 2.63, 2.21, 1.56, 7.12, repro,
2008-05-20,0.43, 1.92, 3.28, 2.18, 1.53, 7.10, repro,
2008-05-21,0.82, 2.17, 3.58, 2.16, 1.52, 7.02, repro,
2008-05-22,1.78, 1.56, -3.33, 2.17, 1.56, 7.16, repro,
2008-05-23,1.27, 0.93, 1.79, 2.19, 1.56, 7.21, repro,
2008-05-24,-0.02, 0.42, -0.67, 2.16, 1.52, 7.00, repro,
2008-05-25,-0.14, 1.11, 0.88, 2.15, 1.52, 6.99, repro,
2008-05-26,1.35, 1.30, 4.32, 2.17, 1.56, 7.12, repro,
2008-05-27,1.04, 1.13, -1.61, 2.15, 1.52, 6.96, repro,
2008-05-28,2.09, 0.15, -1.75, 2.16, 1.52, 7.00, repro,
2008-05-29,0.85, 0.09, -1.54, 2.21, 1.57, 7.18, repro,
2008-05-30,2.01, 0.77, -3.14, 2.15, 1.52, 7.00, repro,
2008-05-31,1.83, 1.42, -6.24, 2.15, 1.52, 6.97, repro,
2008-06-01,1.80, 0.33, -2.58, 2.15, 1.52, 6.99, repro,
2008-06-02,1.62, 0.12, -4.72, 2.15, 1.52, 6.97, repro,
2008-06-03,1.16, -0.15, -9.88, 2.22, 1.57, 7.21, repro,
2008-06-04,1.02, -0.71, 3.20, 2.15, 1.54, 7.06, repro,
2008-06-05,1.54, -0.59, -2.58, 2.16, 1.53, 7.05, repro,
2008-06-06,0.08, -2.15, -6.20, 2.20, 1.56, 7.11, repro,
2008-06-07,0.91, -0.38, -2.08, 2.23, 1.60, 7.28, repro,
2008-06-08,1.46, 0.08, -9.46, 2.21, 1.56, 7.15, repro,
2008-06-09,0.31, -0.62, -2.32, 2.22, 1.58, 7.25, repro,
2008-06-10,-0.14, -0.42, -2.74, 2.19, 1.59, 7.25, repro,
2008-06-11,0.34, -0.67, -3.11, 2.14, 1.52, 6.99, repro,
2008-06-12,0.68, -0.33, -5.76, 2.17, 1.54, 7.09, repro,
2008-06-13,0.89, 0.45, -6.62, 2.16, 1.53, 7.05, repro,
2008-06-14,1.88, 0.07, -7.19, 2.22, 1.57, 7.20, repro,
2008-06-15,1.27, -0.47, -5.76, 2.22, 1.58, 7.27, repro,
2008-06-16,1.38, -0.98, -4.52, 2.14, 1.52, 7.02, repro,
2008-06-17,0.19, -1.17, -6.39, 2.16, 1.51, 6.99, repro,
2008-06-18,0.96, -0.54, -7.84, 2.15, 1.52, 7.01, repro,
2008-06-19,1.87, -0.43, -6.90, 2.25, 1.63, 7.51, repro,
2008-06-20,0.54, -0.63, -1.95, 2.16, 1.53, 7.04, repro,
2008-06-21,0.62, -2.28, -7.41, 2.23, 1.58, 7.29, repro,
2008-06-22,0.26, -1.41, -11.36, 2.20, 1.60, 7.22, repro,
2008-06-23,0.70, -1.18, 1.49, 2.15, 1.52, 6.98, repro,
2008-06-24,0.09, -0.08, -10.62, 2.18, 1.53, 7.03, repro,
2008-06-25,-0.08, 0.11, -0.19, 2.18, 1.52, 7.04, repro,
2008-06-26,3.03, -1.80, -3.12, 2.18, 1.57, 7.18, repro,
2008-06-27,1.76, -0.31, 1.13, 2.14, 1.52, 6.98, repro,
2008-06-28,1.17, -1.65, 1.10, 2.15, 1.52, 6.97, repro,
2008-06-29,1.35, -1.58, -2.03, 2.29, 1.62, 7.31, repro,
2008-06-30,3.71, 0.13, -7.96, 2.27, 1.60, 7.28, repro,
2008-07-01,1.96, -0.40, -2.50, 2.16, 1.53, 7.01, repro,
2008-07-02,1.78, -1.64, -1.18, 2.14, 1.52, 6.99, repro,
2008-07-03,3.04, -0.43, 10.00, 2.17, 1.53, 7.06, repro,
2008-07-04,2.04, -1.08, 1.24, 2.15, 1.52, 6.97, repro,
2008-07-05,1.77, -0.59, -1.60, 2.16, 1.52, 7.01, repro,
2008-07-06,0.53, -1.04, 4.75, 2.17, 1.52, 7.00, repro,
2008-07-07,1.10, -0.51, 1.93, 2.20, 1.57, 7.15, repro,
2008-07-08,0.55, -0.81, 0.56, 2.15, 1.53, 7.01, repro,
2008-07-09,1.02, -1.22, 5.28, 2.16, 1.52, 6.99, repro,
2008-07-10,2.26, -0.68, 6.55, 2.22, 1.57, 7.17, repro,
2008-07-11,-0.21, -1.44, 4.53, 2.25, 1.58, 7.24, repro,
2008-07-12,0.99, -0.81, 3.92, 2.18, 1.52, 7.02, repro,
2008-07-13,2.19, -1.44, 0.45, 2.20, 1.58, 7.25, repro,
2008-07-14,1.18, -0.96, 8.38, 2.18, 1.52, 7.05, repro,
2008-07-15,0.95, -0.98, 2.21, 2.17, 1.52, 6.98, repro,
2008-07-16,0.74, -1.00, -0.12, 2.16, 1.52, 7.01, repro,
2008-07-17,1.37, -1.39, 2.99, 2.15, 1.51, 6.94, repro,
2008-07-18,0.22, -0.40, 5.16, 2.28, 1.57, 7.29, repro,
2008-07-19,1.10, -0.89, 1.44, 2.27, 1.56, 7.27, repro,
2008-07-20,1.17, -1.28, 3.10, 2.15, 1.51, 6.95, repro,
2008-07-21,0.98, -0.01, 5.31, 2.17, 1.54, 7.02, repro,
2008-07-22,-0.17, 0.28, 3.82, 2.16, 1.53, 7.00, repro,
2008-07-23,0.89, -0.18, 6.85, 2.20, 1.53, 7.06, repro,
2008-07-24,0.97, -0.70, 4.79, 2.15, 1.52, 6.97, repro,
2008-07-25,0.90, -1.17, 4.35, 2.16, 1.52, 6.98, repro,
2008-07-26,1.63, -1.51, 7.59, 2.18, 1.52, 7.01, repro,
2008-07-27,0.50, -0.89, 8.75, 2.15, 1.52, 7.00, repro,
2008-07-28,1.63, -0.35, 6.92, 2.24, 1.57, 7.16, repro,
2008-07-29,0.22, -1.17, 16.30, 2.22, 1.54, 7.22, repro,
2008-07-30,0.10, -0.64, 9.48, 2.20, 1.52, 7.14, repro,
2008-07-31,-1.57, -0.59, 8.83, 2.16, 1.52, 7.01, repro,
2008-08-01,1.95, -0.07, 8.87, 2.17, 1.52, 7.00, repro,
2008-08-02,1.85, -0.34, 14.10, 2.16, 1.52, 7.00, repro,
2008-08-03,1.27, -0.72, 7.47, 2.18, 1.55, 7.11, repro,
2008-08-04,1.01, -1.43, 8.50, 2.13, 1.52, 6.92, repro,
2008-08-05,1.73, -0.85, 6.45, 2.14, 1.51, 6.91, repro,
2008-08-06,1.20, -2.09, 11.75, 2.22, 1.54, 7.14, repro,
2008-08-07,1.82, -0.12, 9.67, 2.26, 1.59, 7.30, repro,
2008-08-08,-0.14, -2.27, 9.80, 2.27, 1.59, 7.30, repro,
2008-08-09,0.71, 0.42, 10.10, 2.21, 1.55, 7.15, repro,
2008-08-10,0.82, -0.69, 0.56, 2.18, 1.52, 7.00, repro,
2008-08-11,1.42, -0.98, -1.67, 2.20, 1.53, 7.01, repro,
2008-08-12,1.04, -0.60, 7.68, 2.21, 1.53, 7.09, repro,
2008-08-13,0.17, -0.72, 13.21, 2.22, 1.54, 7.16, repro,
2008-08-14,0.09, -0.88, 10.80, 2.22, 1.54, 7.17, repro,
2008-08-15,-0.15, -0.47, 7.24, 2.21, 1.54, 7.16, repro,
2008-08-16,0.47, -0.62, 5.41, 2.20, 1.53, 7.06, repro,
2008-08-17,0.95, -0.65, 17.24, 2.29, 1.60, 7.34, repro,
2008-08-18,0.15, -2.27, 15.50, 2.25, 1.56, 7.29, repro,
2008-08-19,0.58, -1.15, 18.55, 2.23, 1.55, 7.18, repro,
2008-08-20,0.19, -0.82, 13.03, 2.23, 1.54, 7.21, repro,
2008-08-21,-0.85, -0.76, 4.58, 2.28, 1.58, 7.31, repro,
2008-08-22,1.67, -1.58, 8.33, 2.21, 1.53, 7.04, repro,
2008-08-23,1.70, -2.30, 9.59, 2.23, 1.54, 7.18, repro,
2008-08-24,1.02, 0.55, 7.39, 2.26, 1.57, 7.32, repro,
2008-08-25,0.82, -2.09, 13.11, 2.29, 1.58, 7.33, repro,
2008-08-26,0.64, -1.36, 9.46, 2.28, 1.58, 7.33, repro,
2008-08-27,1.52, -1.75, 8.08, 2.23, 1.57, 7.23, repro,